SHT2N EGLL-EGCC

Flight info

Callsign SHT2N
Flight time 0h 35m
Altitude 18000
Route ULTIB T420 ELVOS
Aircraft A20N/M-SDE2E3FGHIRWXY/LB1

Departure

Time 2026-05-06 17:57
Airport London Heathrow Airport (EGLL)

Arrival

Time 2026-05-06 18:32
Airport Manchester Airport (EGCC)
Time Latitude Longitude Altitude Speed Heading
2026-05-06 17:27 51.47399 -0.48598 87 ft 0 kts 266°
2026-05-06 17:47 51.47399 -0.48596 86 ft 2 kts 266°
2026-05-06 17:48 51.47401 -0.48544 86 ft 5 kts 266°
2026-05-06 17:48 51.47402 -0.48515 86 ft 2 kts 263°
2026-05-06 17:48 51.47406 -0.48493 87 ft 2 kts 229°
2026-05-06 17:48 51.47418 -0.48478 90 ft 2 kts 187°
2026-05-06 17:49 51.47422 -0.48477 90 ft 0 kts 174°
2026-05-06 17:52 51.47420 -0.48477 90 ft 1 kts 174°
2026-05-06 17:52 51.47399 -0.48473 88 ft 5 kts 174°
2026-05-06 17:52 51.47351 -0.48471 90 ft 9 kts 189°
2026-05-06 17:52 51.47286 -0.48452 89 ft 11 kts 134°
2026-05-06 17:53 51.47230 -0.48363 88 ft 12 kts 164°
2026-05-06 17:53 51.47139 -0.48360 86 ft 15 kts 179°
2026-05-06 17:53 51.47025 -0.48361 86 ft 18 kts 179°
2026-05-06 17:53 51.46896 -0.48358 88 ft 12 kts 179°
2026-05-06 17:54 51.46829 -0.48357 87 ft 5 kts 180°
2026-05-06 17:54 51.46821 -0.48357 88 ft 0 kts 180°
2026-05-06 17:54 51.46806 -0.48357 89 ft 7 kts 180°
2026-05-06 17:55 51.46751 -0.48395 87 ft 10 kts 247°
2026-05-06 17:55 51.46694 -0.48470 90 ft 13 kts 185°
2026-05-06 17:55 51.46594 -0.48468 87 ft 15 kts 179°
2026-05-06 17:55 51.46490 -0.48450 89 ft 13 kts 140°
2026-05-06 17:56 51.46479 -0.48316 88 ft 14 kts 88°
2026-05-06 17:56 51.46482 -0.47828 86 ft 79 kts 89°
2026-05-06 17:56 51.46486 -0.46630 92 ft 133 kts 89°
2026-05-06 17:56 51.46476 -0.44935 268 ft 160 kts 89°
2026-05-06 17:57 51.46442 -0.43154 902 ft 161 kts 87°
2026-05-06 17:57 51.46481 -0.41370 1527 ft 162 kts 71°
2026-05-06 17:57 51.46965 -0.39856 2124 ft 161 kts 53°
2026-05-06 17:57 51.47679 -0.38353 2484 ft 178 kts 48°
2026-05-06 17:58 51.48511 -0.36761 2856 ft 200 kts 47°
2026-05-06 17:58 51.49479 -0.34928 3328 ft 225 kts 47°
2026-05-06 17:58 51.50768 -0.33338 3942 ft 245 kts 21°
2026-05-06 17:58 51.52481 -0.32969 4741 ft 257 kts 351°
2026-05-06 17:59 51.54212 -0.33787 5749 ft 262 kts 341°
2026-05-06 17:59 51.55946 -0.34768 6783 ft 266 kts 341°
2026-05-06 17:59 51.57697 -0.35753 7807 ft 268 kts 341°
2026-05-06 17:59 51.59451 -0.36717 8823 ft 271 kts 341°
2026-05-06 18:00 51.61267 -0.37698 9859 ft 276 kts 341°
2026-05-06 18:00 51.63104 -0.38666 10568 ft 290 kts 341°
2026-05-06 18:00 51.65102 -0.39723 11003 ft 314 kts 341°
2026-05-06 18:00 51.67233 -0.40852 11521 ft 330 kts 341°
2026-05-06 18:01 51.69431 -0.42014 12409 ft 333 kts 341°
2026-05-06 18:01 51.71607 -0.43164 13272 ft 338 kts 340°
2026-05-06 18:01 51.73901 -0.44384 13831 ft 342 kts 340°
2026-05-06 18:01 51.76165 -0.45585 14000 ft 343 kts 340°
2026-05-06 18:02 51.78251 -0.46691 14152 ft 347 kts 340°
2026-05-06 18:02 51.80550 -0.47913 14949 ft 348 kts 340°
2026-05-06 18:02 51.82855 -0.49138 15760 ft 351 kts 340°
2026-05-06 18:02 51.85189 -0.50382 16512 ft 356 kts 340°
2026-05-06 18:03 51.87559 -0.51648 17260 ft 360 kts 340°
2026-05-06 18:03 51.89917 -0.52910 17793 ft 365 kts 340°
2026-05-06 18:03 51.92340 -0.54209 17963 ft 366 kts 340°
2026-05-06 18:03 51.94674 -0.55762 17997 ft 365 kts 332°
2026-05-06 18:04 51.96889 -0.57817 17999 ft 365 kts 327°
2026-05-06 18:04 51.99052 -0.59952 17992 ft 364 kts 328°
2026-05-06 18:04 52.01213 -0.62063 17993 ft 364 kts 328°
2026-05-06 18:04 52.03388 -0.64187 17993 ft 364 kts 328°
2026-05-06 18:05 52.05557 -0.66308 17989 ft 364 kts 328°
2026-05-06 18:05 52.07721 -0.68432 17994 ft 364 kts 328°
2026-05-06 18:05 52.09884 -0.70558 17994 ft 364 kts 328°
2026-05-06 18:05 52.12046 -0.72686 17997 ft 363 kts 328°
2026-05-06 18:06 52.14177 -0.74786 17997 ft 364 kts 328°
2026-05-06 18:06 52.16342 -0.76923 17994 ft 363 kts 328°
2026-05-06 18:06 52.18505 -0.79060 17996 ft 363 kts 328°
2026-05-06 18:06 52.20668 -0.81199 18001 ft 364 kts 328°
2026-05-06 18:07 52.22834 -0.83344 18004 ft 364 kts 328°
2026-05-06 18:07 52.24980 -0.85470 18004 ft 364 kts 328°
2026-05-06 18:07 52.27158 -0.87632 18008 ft 364 kts 327°
2026-05-06 18:07 52.29318 -0.89778 18012 ft 363 kts 328°
2026-05-06 18:08 52.31478 -0.91927 18019 ft 363 kts 327°
2026-05-06 18:08 52.33610 -0.94051 18021 ft 363 kts 327°
2026-05-06 18:08 52.35769 -0.96203 18019 ft 364 kts 327°
2026-05-06 18:08 52.37926 -0.98356 18020 ft 363 kts 327°
2026-05-06 18:09 52.40080 -1.00509 18017 ft 363 kts 327°
2026-05-06 18:09 52.42236 -1.02666 18021 ft 363 kts 327°
2026-05-06 18:09 52.44397 -1.04831 18014 ft 363 kts 327°
2026-05-06 18:09 52.46554 -1.06993 18014 ft 364 kts 327°
2026-05-06 18:10 52.48053 -1.08498 18010 ft 363 kts 327°
2026-05-06 18:10 52.50210 -1.10664 18004 ft 363 kts 327°
2026-05-06 18:10 52.52358 -1.12826 18008 ft 363 kts 327°
2026-05-06 18:10 52.54488 -1.14970 18001 ft 363 kts 327°
2026-05-06 18:11 52.56638 -1.17138 18000 ft 363 kts 327°
2026-05-06 18:11 52.58794 -1.19313 18000 ft 363 kts 327°
2026-05-06 18:11 52.60949 -1.21488 17998 ft 363 kts 327°
2026-05-06 18:11 52.63105 -1.23668 17990 ft 363 kts 327°
2026-05-06 18:12 52.65257 -1.25846 17990 ft 363 kts 327°
2026-05-06 18:12 52.67408 -1.28026 17994 ft 363 kts 327°
2026-05-06 18:12 52.69562 -1.30211 17996 ft 364 kts 327°
2026-05-06 18:12 52.71715 -1.32399 17994 ft 364 kts 327°
2026-05-06 18:13 52.73836 -1.34559 18052 ft 364 kts 327°
2026-05-06 18:13 52.75988 -1.36752 18047 ft 364 kts 327°
2026-05-06 18:13 52.78146 -1.38955 18047 ft 364 kts 327°
2026-05-06 18:13 52.80293 -1.41149 18045 ft 364 kts 327°
2026-05-06 18:14 52.82449 -1.43353 18046 ft 364 kts 327°
2026-05-06 18:14 52.84589 -1.45545 18051 ft 364 kts 327°
2026-05-06 18:14 52.86699 -1.47708 18018 ft 364 kts 327°
2026-05-06 18:14 52.88830 -1.49896 17606 ft 364 kts 327°
2026-05-06 18:15 52.91009 -1.52136 16853 ft 368 kts 327°
2026-05-06 18:15 52.92954 -1.54138 16027 ft 373 kts 327°
2026-05-06 18:15 52.95160 -1.56411 15318 ft 372 kts 327°
2026-05-06 18:15 52.97350 -1.58668 14707 ft 368 kts 327°
2026-05-06 18:16 52.99510 -1.60897 14101 ft 365 kts 327°
2026-05-06 18:16 53.01656 -1.63115 13460 ft 362 kts 327°
2026-05-06 18:16 53.03756 -1.65308 13129 ft 350 kts 325°
2026-05-06 18:16 53.05633 -1.67756 12961 ft 334 kts 317°
2026-05-06 18:17 53.07187 -1.70445 12806 ft 320 kts 310°
2026-05-06 18:17 53.08594 -1.73212 12680 ft 306 kts 310°
2026-05-06 18:17 53.09953 -1.75842 12510 ft 295 kts 310°
2026-05-06 18:17 53.11275 -1.78402 12230 ft 288 kts 310°
2026-05-06 18:18 53.12567 -1.80921 11843 ft 285 kts 310°
2026-05-06 18:18 53.13857 -1.83440 11426 ft 284 kts 310°
2026-05-06 18:18 53.15135 -1.85938 11011 ft 283 kts 310°
2026-05-06 18:18 53.16404 -1.88426 10622 ft 281 kts 310°
2026-05-06 18:19 53.17664 -1.90903 10226 ft 280 kts 310°
2026-05-06 18:19 53.18903 -1.93345 9844 ft 278 kts 310°
2026-05-06 18:19 53.20149 -1.95811 9409 ft 277 kts 310°
2026-05-06 18:19 53.21380 -1.98243 9018 ft 274 kts 310°
2026-05-06 18:20 53.22609 -2.00675 8606 ft 272 kts 310°
2026-05-06 18:20 53.23820 -2.03070 8221 ft 270 kts 310°
2026-05-06 18:20 53.24999 -2.05514 7814 ft 268 kts 301°
2026-05-06 18:20 53.25579 -2.08431 7431 ft 268 kts 274°
2026-05-06 18:21 53.25282 -2.11482 7048 ft 269 kts 248°
2026-05-06 18:21 53.24407 -2.14247 6660 ft 269 kts 242°
2026-05-06 18:21 53.23488 -2.16950 6281 ft 267 kts 242°
2026-05-06 18:21 53.22555 -2.19617 5881 ft 266 kts 239°
2026-05-06 18:22 53.21557 -2.22174 5486 ft 265 kts 238°
2026-05-06 18:22 53.20561 -2.24753 5078 ft 264 kts 238°
2026-05-06 18:22 53.19540 -2.27275 4717 ft 262 kts 235°
2026-05-06 18:22 53.18517 -2.29716 4606 ft 250 kts 235°
2026-05-06 18:23 53.17542 -2.32052 4490 ft 239 kts 235°
2026-05-06 18:23 53.16616 -2.34277 4400 ft 228 kts 235°
2026-05-06 18:23 53.15741 -2.36387 4291 ft 216 kts 235°
2026-05-06 18:23 53.14890 -2.38445 3930 ft 218 kts 235°
2026-05-06 18:24 53.14087 -2.40598 3586 ft 219 kts 249°
2026-05-06 18:24 53.13698 -2.42941 3500 ft 207 kts 260°
2026-05-06 18:24 53.13591 -2.45240 3486 ft 192 kts 268°
2026-05-06 18:24 53.13548 -2.47506 3499 ft 202 kts 270°
2026-05-06 18:25 53.13826 -2.49759 3501 ft 199 kts 292°
2026-05-06 18:25 53.14389 -2.51873 3493 ft 200 kts 296°
2026-05-06 18:25 53.15229 -2.53673 3504 ft 198 kts 318°
2026-05-06 18:25 53.16252 -2.55216 3501 ft 199 kts 319°
2026-05-06 18:26 53.17283 -2.56746 3495 ft 199 kts 321°
2026-05-06 18:26 53.18501 -2.57742 3505 ft 196 kts 356°
2026-05-06 18:26 53.19813 -2.57395 3504 ft 194 kts 28°
2026-05-06 18:26 53.20894 -2.56115 3496 ft 192 kts 45°
2026-05-06 18:27 53.21810 -2.54491 3497 ft 192 kts 51°
2026-05-06 18:27 53.22668 -2.52752 3501 ft 192 kts 52°
2026-05-06 18:27 53.23502 -2.51046 3331 ft 193 kts 52°
2026-05-06 18:27 53.24353 -2.49296 3049 ft 194 kts 52°
2026-05-06 18:28 53.25193 -2.47567 2830 ft 189 kts 52°
2026-05-06 18:28 53.25993 -2.45925 2552 ft 182 kts 53°
2026-05-06 18:28 53.26757 -2.44337 2286 ft 168 kts 52°
2026-05-06 18:28 53.27485 -2.42851 2056 ft 157 kts 53°
2026-05-06 18:29 53.28138 -2.41500 1848 ft 145 kts 53°
2026-05-06 18:29 53.28756 -2.40223 1659 ft 140 kts 53°
2026-05-06 18:29 53.29366 -2.38953 1470 ft 141 kts 52°
2026-05-06 18:29 53.29983 -2.37705 1266 ft 139 kts 53°
2026-05-06 18:30 53.30584 -2.36439 1063 ft 137 kts 52°
2026-05-06 18:30 53.31187 -2.35210 853 ft 139 kts 53°
2026-05-06 18:30 53.31790 -2.33943 704 ft 138 kts 53°
2026-05-06 18:30 53.32419 -2.32703 572 ft 139 kts 52°
2026-05-06 18:31 53.32771 -2.31974 407 ft 140 kts 53°
2026-05-06 18:31 53.33363 -2.30748 245 ft 132 kts 53°
2026-05-06 18:31 53.33860 -2.29694 234 ft 90 kts 51°
2026-05-06 18:31 53.34148 -2.29094 233 ft 55 kts 51°
2026-05-06 18:32 53.34337 -2.28725 229 ft 25 kts 45°
2026-05-06 18:32 53.34498 -2.28545 232 ft 30 kts 23°
2026-05-06 18:32 53.34668 -2.28431 233 ft 24 kts 22°
2026-05-06 18:32 53.34788 -2.28243 233 ft 24 kts 51°
2026-05-06 18:33 53.34897 -2.28014 232 ft 26 kts 52°
2026-05-06 18:33 53.35013 -2.27774 234 ft 27 kts 51°
2026-05-06 18:33 53.35135 -2.27522 233 ft 28 kts 52°
2026-05-06 18:33 53.35234 -2.27315 233 ft 18 kts 50°
2026-05-06 18:34 53.35345 -2.27091 233 ft 20 kts 51°
2026-05-06 18:34 53.35292 -2.27200 234 ft 0 kts 51°
2026-05-06 18:34 53.35296 -2.27190 235 ft 1 kts 51°
2026-05-06 18:34 53.35309 -2.27179 233 ft 2 kts
2026-05-06 18:35 53.35352 -2.27190 236 ft 10 kts 348°
2026-05-06 18:35 53.35424 -2.27258 237 ft 12 kts 321°
2026-05-06 18:35 53.35486 -2.27345 239 ft 13 kts 320°
2026-05-06 18:35 53.35556 -2.27440 236 ft 9 kts 322°
2026-05-06 18:36 53.35601 -2.27500 233 ft 0 kts 322°
2026-05-06 18:36 53.35613 -2.27515 236 ft 4 kts 322°
2026-05-06 18:36 53.35625 -2.27530 233 ft 0 kts 322°
2026-05-06 18:37 53.35626 -2.27533 233 ft 2 kts 322°
2026-05-06 18:38 53.35653 -2.27568 235 ft 7 kts 321°
2026-05-06 18:38 53.35709 -2.27626 234 ft 11 kts 338°
2026-05-06 18:38 53.35783 -2.27679 233 ft 3 kts 329°
2026-05-06 18:38 53.35793 -2.27692 235 ft 4 kts 319°
2026-05-06 18:39 53.35826 -2.27726 235 ft 8 kts 341°
2026-05-06 18:39 53.35865 -2.27732 234 ft 10 kts
2026-05-06 18:39 53.35974 -2.27741 232 ft 14 kts 338°
2026-05-06 18:40 53.36054 -2.27845 232 ft 11 kts 324°
2026-05-06 18:40 53.36125 -2.27946 232 ft 15 kts 314°
2026-05-06 18:40 53.36178 -2.28036 232 ft 17 kts 315°
2026-05-06 18:40 53.36305 -2.28252 232 ft 21 kts 314°
2026-05-06 18:41 53.36377 -2.28371 235 ft 17 kts 315°
2026-05-06 18:41 53.36425 -2.28485 232 ft 9 kts 307°
2026-05-06 18:41 53.36477 -2.28573 232 ft 13 kts 315°
2026-05-06 18:41 53.36524 -2.28652 232 ft 0 kts 314°
2026-05-06 18:42 53.36525 -2.28654 232 ft 2 kts 314°
2026-05-06 18:42 53.36554 -2.28704 232 ft 14 kts 313°
2026-05-06 18:42 53.36617 -2.28871 236 ft 19 kts 317°
2026-05-06 18:42 53.36710 -2.29026 232 ft 16 kts 315°
2026-05-06 18:43 53.36809 -2.29053 232 ft 15 kts 19°
2026-05-06 18:43 53.36825 -2.29042 234 ft 0 kts 25°
2026-05-06 18:44 53.36834 -2.29035 233 ft 4 kts 25°
2026-05-06 18:44 53.36867 -2.28993 232 ft 8 kts 38°
2026-05-06 18:44 53.36905 -2.28907 236 ft 8 kts 96°
2026-05-06 18:44 53.36887 -2.28875 234 ft 2 kts 144°
2026-05-06 18:45 53.36865 -2.28838 232 ft 5 kts 136°
2026-05-06 18:45 53.36863 -2.28834 233 ft 0 kts 136°